DELTA 1 DEB, 7076

Orbit data source: Space-Track

DELTA 1 DEB, 7076 is space debris in SSO originally from a launch on Tue, 06 Nov 1973 UTC launched from the Air Force Western Test Range (AFWTR). Debris objects in space refer to the collection of defunct objects orbiting the Earth. Examples of debris include non-operational satellites, rocket bodies, and fragments generated from explosions, collisions, or faulty payload assembly.

Loading next visibility...
Identifier
7076, 1973-086BU
Orbit
SSO
Country
Flag of USUS
Related business
Manufacturer
Unknown
Mission
Spacecraft
Bus & Motor
Unknown
Mass
Unknown
Launch date (UTC)
1973-11-06 (53 years ago)
Launch vehicle
Unknown
Launch site
Air Force Western Test Range (AFWTR)
Object type
Payload
Rocket body
Debris
Shape & HBR
Unknown shape, 0.2 m
Radar Cross Section
Medium (>0.1 m² and <1 m²)

Expand to show TLE details & history
Last TLE update: 9 hours ago

TLE from 9 hours ago
0 DELTA 1 DEB
1 07076U 73086BU  26265.80318126 -.00000012  00000-0  25683-3 0  9995
2 07076 102.3057 267.8550 0011788 251.8497 284.2167 12.39871488392414
Epoch: 2026-09-22T19:16Z
TLE epoch observation values (Epoch: 2026-09-22T19:16:34.860Z)
Latitude
3.88912°
Longitude
157.89189°
Altitude
1,506.992 km
Speed
7.113 km/s
True Right ascension
05h 54m 48s
True Declination
3° 52' 05"
Sunlit
Object was in daylight at epoch
Visualization orbit readout
Latitude
Unknown
Longitude
Unknown
Altitude
Unknown
Speed
Unknown
Apparent Right ascension
Unknown
Apparent Declination
Unknown
Sunlit
N/A
Visualization observer readout
Local Sidereal Time
21:09:48
Azimuth
Unknown
Elevation
Unknown
Doppler factor
Unknown
Orbital elements
Apogee altitude
1,514.034 km
Perigee altitude
1,495.449 km
Semi-major axis
7,882.878 km
Eccentricity
0.00118
Inclination
102.3057°
RAAN
267.855°
Arg. of periapsis
251.8497°
True anomaly
284.08571°
Mean anomaly
284.2167°
Eccentric anomaly
284.15121°
Mean motion
3.1011 °/min
Orbital period
116.09 mins
BSTAR
0.00025683
Loading maneuver chart data...
Computing Atmospheric mass density...
Loading historical data...
Loading historical data...
Loading historical data...
Loading historical data...
Loading historical data...
Loading historical data...
Loading historical data...

Documentation

Showing up to 5 results
|